Flag for Germany Weather past 2 weeks in Witzenhausen, Hesse, Germany

Now
46 °F

Mostly cloudy.


Feels Like: 39 °F
Forecast: 48 / 50 °F
Wind: 20 mph from Southwest

Location: Kassel / Calden

Current Time: Dec 22, 2014 at 1:47:56 PM

Latest Report: Dec 22, 2014 at 12:50 PM


Visibility: N/A

Pressure: 29.98 "Hg

Humidity: 87%

Dew point: 43 °F

Location of WitzenhausenLocation

Historic Weather in Witzenhausen — Graph

°F

Witzenhausen temperature yesterday

Maximum temperature yesterday: 43 °F (at 11:20 AM)
Minimum temperature yesterday: 39 °F (at 12:20 AM)
Average temperature yesterday: 41 °F

Past Weeks' High & Low Weather Summary

 TemperatureHumidityPressure
High55 °F (Dec 18, 8:50 PM)100% (Dec 14, 9:20 AM)30.36 "Hg (Dec 14, 9:20 AM)
Low32 °F (Dec 8, 7:50 AM)65% (Dec 14, 7:50 AM)29.42 "Hg (Dec 12, 1:50 PM)
Average40 °F84%29.92 "Hg
* Reported Dec 7 12:20 PM — Dec 22 12:50 PM, Witzenhausen, Weather by CustomWeather, © 2014

Note: Actual official high and low records may vary slightly from our data, if they occured in-between our weather recording intervals... More about our weather records

Advertising

Witzenhausen weather history for previous 24 hours

 ConditionsComfort  
Time TempWeatherWind HumidityBarometerVisibility
12:50 PM
Dec 22
46 °FMostly cloudy.20 mph87%29.98 "HgN/A
12:20 PM46 °FLow clouds.23 mph87%30.01 "HgN/A
11:50 AM48 °FOvercast.25 mph82%30.01 "HgN/A
11:20 AM48 °FOvercast.25 mph82%29.98 "HgN/A
10:50 AM46 °FOvercast.25 mph82%30.01 "HgN/A
10:20 AM46 °FOvercast.28 mph82%30.01 "HgN/A
9:50 AM46 °FOvercast.21 mph82%30.01 "HgN/A
9:20 AM46 °FOvercast.22 mph82%30.01 "HgN/A
8:50 AM46 °FOvercast.20 mph82%30.01 "HgN/A
8:20 AM46 °FOvercast.20 mph82%30.01 "HgN/A
7:50 AM46 °FLight rain. Overcast.21 mph82%30.01 "HgN/A
7:20 AM46 °FOvercast.22 mph82%30.01 "HgN/A
6:50 AM46 °FMostly cloudy.21 mph82%30.01 "HgN/A
6:20 AM45 °FLight rain. Passing clouds.20 mph93%30.01 "Hg5 mi
5:50 AM46 °FOvercast.18 mph82%30.01 "HgN/A
9:50 PM
Dec 21
43 °FPartly cloudy.15 mph87%30.15 "HgN/A
9:20 PM43 °FLight rain. Partly cloudy.15 mph87%30.15 "HgN/A
8:50 PM43 °FPartly cloudy.16 mph87%30.15 "HgN/A
8:20 PM43 °FPartly cloudy.15 mph87%30.18 "HgN/A
7:50 PM43 °FLight rain. Partly cloudy.15 mph87%30.18 "HgN/A
7:20 PM43 °FPartly cloudy.15 mph87%30.18 "HgN/A
6:50 PM41 °FPartly cloudy.15 mph93%30.18 "HgN/A
6:20 PM41 °FPartly cloudy.16 mph87%30.18 "HgN/A
5:50 PM41 °FLight rain. Passing clouds.17 mph87%30.21 "HgN/A
5:20 PM41 °FPassing clouds.16 mph87%30.21 "HgN/A
4:50 PM41 °FLight rain. Partly cloudy.15 mph87%30.24 "HgN/A
4:20 PM41 °FLight rain. Overcast.14 mph87%30.24 "HgN/A
3:50 PM41 °FLight rain. Mostly cloudy.13 mph87%30.24 "HgN/A
3:20 PM41 °FLight rain. Mostly cloudy.14 mph87%30.24 "Hg6 mi
2:50 PM41 °FLight rain. Broken clouds.13 mph87%30.27 "HgN/A
2:20 PM41 °FLight rain. Broken clouds.14 mph87%30.27 "HgN/A
1:50 PM41 °FLight rain. Broken clouds.12 mph87%30.30 "HgN/A
1:20 PM41 °FDrizzle. Broken clouds.13 mph87%30.30 "HgN/A
Weather by CustomWeather, © 2014

See weather overviewHow to use our weather pages